1770697736482711,-1.055295,5.742007,8.247337
1770697756258128,-0.667451,5.449926,7.926528
1770697776002972,-0.849402,5.536114,7.845128
1770697795778388,-0.930802,5.646243,7.792458
1770697815584274,-0.973896,5.536114,7.902586
1770697835359690,-0.940378,5.612725,7.916951
1770697855165576,-0.983472,5.598361,7.878645
1770697874971513,-1.074448,5.708489,7.878645
1770697894746878,-1.050507,5.708489,7.950469
1770697914522295,-0.935590,5.574419,8.055809
1770697934297659,-0.858979,5.488232,7.926528
1770697954103597,-0.825462,5.555267,7.878645
1770697973909482,-0.921225,5.564843,7.883434
1770697992821409,-0.863767,5.478656,8.051021
1770698012596774,-0.825462,5.603149,7.993562
1770698032372190,-0.935590,5.588784,8.079750
1770698052178076,-0.825462,5.550478,8.194667
1770698071892451,-0.892496,5.636666,7.960044
1770698091667815,-1.112753,5.713278,7.964833
1770698111504222,-0.921225,5.799465,7.691905
1770698131279638,-0.772791,5.694125,7.888222
1770698151055003,-0.758427,5.603149,7.912163
1770698170830420,-0.677027,5.612725,7.936104
1770698190636305,-0.686604,5.497808,7.974410
1770698210442242,-0.643510,5.507385,7.936104
1770698230217607,-0.720121,5.488232,8.165937
1770698249993024,-0.705757,5.627090,8.012715
1770698269768388,-0.734486,5.651031,7.964833
1770698289543805,-0.696180,5.603149,7.888222
1770698309349690,-0.739274,5.694125,7.725423
1770698329125107,-0.643510,5.627090,7.749364
1770698348900472,-0.681816,5.593573,7.916951
1770698368675888,-0.748850,5.612725,7.940892
1770698388481774,-0.782368,5.607937,8.094115
1770698408257190,-0.835038,5.607937,8.204244
1770698428032555,-0.739274,5.574419,8.084538
1770698447838492,-0.638722,5.502596,8.141996
1770698467613857,-0.657875,5.722854,7.739788
1770698487419795,-0.686604,5.651031,7.677541
1770698507164638,-0.600416,5.550478,7.945680
1770698526940055,-0.576475,5.483444,8.036656
1770698546745940,-0.609993,5.540902,8.127632
1770698566521357,-0.835038,5.828194,7.950469
1770698586296722,-0.825462,5.718066,7.811610
1770698606072138,-0.619569,5.588784,7.955256
1770698625847503,-0.576475,5.512173,8.118056
1770698645622920,-0.691392,5.765948,7.912163
1770698665398284,-0.619569,5.737218,7.758940
1770698685204222,-0.605204,5.540902,7.940892
1770698704979586,-0.557322,5.603149,7.964833
1770698724755003,-0.633934,5.655819,7.964833
1770698744499847,-0.653086,5.698913,8.022292
1770698764275263,-0.662663,5.569632,8.108479
1770698784050628,-0.633934,5.636666,8.070174
1770698803826045,-0.705757,5.646243,7.955256
1770698823631930,-0.653086,5.698913,7.979197
1770698843407347,-0.514229,5.526537,7.974410
1770698863182711,-0.590840,5.550478,7.869069
1770698882958128,-0.562111,5.617514,7.883434
1770698902764013,-0.466347,5.473867,7.888222
1770698922508909,-0.614781,5.636666,7.936104
1770698942284274,-0.595628,5.713278,7.888222
1770698962059690,-0.609993,5.636666,7.902586
1770698981835055,-0.586052,5.689337,7.926528
1770699001705315,-0.586052,5.646243,7.849916
1770699021480732,-0.700968,5.804253,7.821187
1770699041256097,-0.629145,5.579208,7.979197
1770699061031513,-0.619569,5.555267,8.218607
1770699080806878,-0.600416,5.727642,8.161149
1770699100582295,-0.739274,5.670184,8.065386
1770699120327190,-0.605204,5.598361,8.094115
1770699140102555,-0.619569,5.674972,7.873857
1770699159908440,-0.777579,5.842558,7.821187
1770699179653336,-0.815885,5.856924,7.677541
1770699199428753,-0.638722,5.765948,7.663177
1770699219173597,-0.681816,5.689337,7.993562
1770699238949013,-0.691392,5.617514,8.175514
1770699258754899,-0.509440,5.684548,8.199455
1770699278530315,-0.547746,5.698913,7.902586
1770699298336201,-0.519017,5.674972,7.744576
1770699318081097,-0.471135,5.641455,7.739788
1770699337856461,-0.437617,5.612725,7.864281
1770699357631878,-0.528593,5.507385,8.012715
1770699377407242,-0.595628,5.607937,7.988774
1770699397243649,-0.581263,5.674972,7.936104
1770699417019065,-0.557322,5.689337,7.945680
1770699436794430,-0.691392,5.660607,7.921739
1770699456600367,-0.566899,5.593573,8.012715
1770699476375732,-0.523805,5.521749,8.165937
1770699496120628,-0.571687,5.583996,7.979197
1770699515895992,-0.514229,5.622302,7.768517
1770699535701930,-0.566899,5.651031,7.720635
1770699555507815,-0.590840,5.560055,7.950469
1770699575283232,-0.600416,5.560055,8.118056
1770699595058597,-0.542958,5.660607,8.103691
1770699614834013,-0.471135,5.555267,7.998351
1770699634609378,-0.538170,5.598361,7.916951
1770699654415315,-0.672239,5.737218,7.969621
1770699674221201,-0.677027,5.813829,8.055809
1770699693996617,-0.586052,5.770736,7.849916
1770699713771982,-0.734486,5.775524,7.591353
1770699733577920,-0.710545,5.694125,7.538683
1770699753353284,-0.552534,5.560055,7.739788
1770699773128701,-0.490288,5.607937,7.983985
1770699792904065,-0.557322,5.674972,8.065386
1770699812679482,-0.475923,5.646243,8.108479
1770699832454847,-0.466347,5.464291,8.170726
1770699852230263,-0.389735,5.459503,8.237761
1770699872036149,-0.509440,5.574419,8.017504
1770699891811565,-0.638722,5.651031,7.888222
1770699911586930,-0.662663,5.713278,7.912163
1770699931331826,-0.715333,5.832983,7.902586
1770699951107190,-0.801521,5.813829,8.051021
1770699970913128,-0.657875,5.655819,8.012715
1770699990719013,-0.609993,5.560055,7.979197
1770700010666357,-0.542958,5.574419,7.964833
1770700030441774,-0.643510,5.651031,8.027080
1770700050217138,-0.648298,5.660607,7.993562
1770700069992555,-0.547746,5.598361,7.931315
1770700089798440,-0.595628,5.665396,7.864281
1770700109573857,-0.595628,5.622302,7.955256
1770700129349222,-0.514229,5.612725,8.079750
1770700149155159,-0.523805,5.536114,8.247337
1770700168930524,-0.504652,5.665396,8.003139
1770700188705940,-0.432829,5.579208,7.864281
1770700208511826,-0.466347,5.512173,7.883434
1770700228287242,-0.519017,5.622302,7.897798
1770700248093128,-0.389735,5.588784,7.931315
1770700267899065,-0.475923,5.550478,7.825975
1770700287643909,-0.461558,5.627090,7.739788
1770700307419326,-0.542958,5.761159,7.682329
1770700327255732,-0.614781,5.665396,7.806822
1770700347061617,-0.542958,5.445138,8.141996
1770700366837034,-0.523805,5.488232,8.285643
1770700386612399,-0.614781,5.588784,8.213820
1770700406387815,-0.657875,5.545691,8.137208
1770700426193701,-0.451982,5.430774,8.137208
1770700445969117,-0.590840,5.502596,8.118056
1770700465744482,-0.566899,5.483444,8.127632
1770700485519899,-0.624357,5.555267,8.189878
1770700505295263,-0.619569,5.617514,7.921739
1770700525070680,-0.653086,5.560055,7.907375
1770700544846045,-0.576475,5.569632,7.964833
1770700564651982,-0.504652,5.564843,8.094115
1770700584457867,-0.523805,5.488232,8.079750
1770700604233284,-0.609993,5.550478,8.022292
1770700624008649,-0.624357,5.564843,8.074962
1770700643814586,-0.586052,5.516961,7.979197
1770700663589951,-0.466347,5.521749,8.017504
1770700683395888,-0.533381,5.536114,8.060597
1770700703171253,-0.562111,5.406833,8.180303
1770700722946670,-0.456770,5.382892,8.213820
1770700742722034,-0.566899,5.502596,8.065386
1770700762497451,-0.677027,5.569632,8.046233
1770700782272815,-0.552534,5.469079,8.223396
1770700802048232,-0.547746,5.416409,8.319160
1770700821854117,-0.609993,5.555267,8.003139
1770700841660055,-0.519017,5.531326,7.835552
1770700861404899,-0.542958,5.473867,7.998351
1770700881180315,-0.485499,5.378104,8.046233
1770700900986201,-0.394524,5.349375,8.122844
1770700920761617,-0.542958,5.473867,8.118056
1770700940567503,-0.447194,5.454715,8.189878
1770700960342867,-0.566899,5.569632,8.041445
1770700980118284,-0.595628,5.459503,8.022292
1770700999893649,-0.700968,5.464291,7.974410
1770701019769586,-0.566899,5.555267,7.926528
1770701039544951,-0.566899,5.363739,8.141996
1770701059320367,-0.514229,5.440350,8.098903
1770701079095732,-0.609993,5.540902,8.089326
1770701098871149,-0.696180,5.521749,8.079750
1770701118646513,-0.657875,5.469079,8.266489
1770701138421930,-0.490288,5.425986,8.199455
1770701158197295,-0.456770,5.354163,8.113267
1770701177972711,-0.471135,5.445138,7.921739
1770701197778597,-0.571687,5.583996,7.696694
1770701217523492,-0.605204,5.483444,8.084538
1770701237298857,-0.648298,5.421197,8.304795
1770701257074274,-0.648298,5.512173,8.280854
1770701276880159,-0.595628,5.493020,8.161149
1770701296655576,-0.499864,5.454715,8.022292
1770701316430940,-0.562111,5.493020,7.983985
1770701336206357,-0.523805,5.402045,8.065386
1770701355981722,-0.485499,5.296704,8.247337
1770701375787659,-0.552534,5.512173,8.137208
1770701395563024,-0.605204,5.469079,7.950469
1770701415338440,-0.566899,5.402045,8.027080
1770701435113805,-0.413677,5.425986,8.017504
1770701454919742,-0.428041,5.354163,8.156362
1770701474664586,-0.499864,5.339798,8.151573
1770701494440003,-0.557322,5.440350,8.103691
1770701514245888,-0.566899,5.368527,8.122844
1770701534021305,-0.461558,5.416409,8.290430
1770701553796670,-0.475923,5.315857,8.285643
1770701573572086,-0.471135,5.339798,8.185090
1770701593347451,-0.451982,5.363739,8.065386
1770701613153388,-0.677027,5.488232,7.945680
1770701632928753,-0.571687,5.358951,8.074962
1770701652734690,-0.552534,5.358951,8.285643
1770701672510055,-0.533381,5.435562,8.228185
1770701692285472,-0.605204,5.425986,8.055809
1770701712030315,-0.490288,5.354163,8.113267
1770701731805732,-0.499864,5.335010,8.156362
1770701751611617,-0.499864,5.215305,8.352677
1770701771387034,-0.432829,5.200940,8.319160
1770701791162399,-0.624357,5.473867,8.003139
1770701810937815,-0.609993,5.344586,8.127632
1770701830743701,-0.495076,5.277552,8.218607
1770701850519117,-0.590840,5.344586,8.266489
1770701870294482,-0.542958,5.421197,8.189878
1770701890069899,-0.542958,5.502596,8.132421
1770701909875784,-0.533381,5.277552,8.256913
1770701929651149,-0.485499,5.181787,8.443653
1770701949457086,-0.514229,5.263187,8.458017
1770701969232451,-0.557322,5.402045,8.362253
1770701989007867,-0.595628,5.354163,8.261702
1770702008813753,-0.423253,5.172211,8.376618
1770702028776201,-0.394524,5.200940,8.285643
1770702048551565,-0.557322,5.440350,8.300008
1770702068326982,-0.533381,5.373316,8.620816
1770702088102347,-0.552534,5.330222,8.821920
1770702107877763,-0.509440,5.239246,8.817132
1770702127653128,-0.514229,5.344586,8.563358
1770702147428545,-0.418465,5.397256,8.577723
1770702167234430,-0.466347,5.402045,8.630392
1770702186979326,0.002897,5.018989,8.486747
1770702206754690,0.529598,4.726909,8.256913
1770702226560628,0.802526,4.497075,7.936104
1770702246366513,0.548751,4.750850,8.204244
1770702266141930,0.146543,4.770002,8.070174
1770702285917295,0.275824,4.832249,7.691905
1770702305692711,0.510446,4.731697,7.548260
1770702325468076,0.673244,4.880131,7.672753
1770702345243492,0.385953,5.095600,7.964833
1770702365049378,0.247095,5.129117,8.151573
1770702384824795,0.079508,5.291916,7.921739
1770702404600159,0.151331,5.229670,7.567412
1770702424406097,-0.088079,5.224881,7.979197
1770702444181461,-0.461558,5.526537,8.941626
1770702463926357,-0.858979,5.622302,9.549726
1770702483701722,-0.878132,5.861712,9.468328
1770702503507659,-0.878132,5.856924,9.099636
1770702523313545,-0.677027,5.689337,8.726156
1770702543088909,-0.590840,5.569632,8.496324
1770702562833805,-0.600416,5.469079,8.448442
1770702582609222,-0.389735,5.540902,8.266489
1770702602415107,-0.279607,5.646243,7.816399
1770702622190472,-0.284395,5.560055,7.912163
1770702641965888,-0.083291,5.684548,7.519530
1770702661771774,-0.054562,5.909594,6.964099
1770702681547190,-0.293972,6.153791,7.304061
1770702701322555,-0.112020,6.225615,7.476437
1770702721128492,0.022049,6.163368,7.667964
1770702740903857,0.113025,5.990993,7.864281
1770702760679274,0.381164,5.837770,7.682329
1770702780454638,0.218366,5.947899,7.509954
1770702800260576,0.079508,5.967052,7.859493
1770702820066461,0.079508,6.096333,7.792458
1770702839841878,0.136966,6.038875,7.610507
1770702859617242,0.304553,6.053240,7.241815
1770702879392659,0.443411,5.900017,6.944947
1770702899168024,0.429046,5.737218,7.323215
1770702918943440,0.457775,5.593573,7.988774
1770702938718805,0.960536,5.785100,7.969621
1770702958494222,0.974901,5.765948,8.261702
1770702978300107,0.888713,5.780312,8.410135
1770702998106045,0.936595,5.813829,8.165937
1770703017881409,0.984477,5.684548,7.806822
1770703037715315,1.166429,5.670184,7.524319
1770703057490680,1.348380,5.545691,7.557836
1770703077235576,1.482450,5.631878,7.505166
1770703097010940,1.372321,5.761159,7.466860
1770703116816878,1.549484,5.564843,7.189145
1770703136622763,1.563849,5.617514,6.906641
1770703156398180,1.353168,5.794677,6.801301
1770703176173545,1.128123,5.995781,6.853971
1770703195918440,1.080241,5.933535,7.107745
1770703215693805,1.137700,5.727642,7.538683
1770703235499742,1.070665,5.665396,8.074962
1770703255244586,0.903078,5.746795,8.242548
1770703275020003,0.845619,5.775524,8.323948
1770703294795367,0.816890,5.694125,8.218607
1770703314570784,0.927019,5.722854,7.878645
1770703334346149,1.003630,5.703701,7.758940
1770703354121565,1.099394,5.694125,7.624871
1770703373896930,1.118547,5.665396,7.711059
1770703393672347,0.907866,5.832983,7.758940
1770703413478232,0.831255,5.789888,7.634448
1770703433253649,0.836043,5.770736,7.567412
1770703452998492,0.836043,5.847347,7.514742
1770703472773909,0.888713,5.799465,7.778093
1770703492579795,0.831255,5.641455,7.945680
1770703512355211,0.754644,5.770736,7.998351
1770703532161097,0.721126,5.718066,8.007927
1770703551936461,0.687609,5.751583,7.974410
1770703571711878,0.572692,5.904805,7.912163
1770703591517763,0.735491,5.742007,8.141996
1770703611293180,0.716338,5.651031,8.003139
1770703631099065,0.567904,5.813829,8.027080
1770703650874482,0.467352,5.895229,7.993562
1770703670680367,0.548751,5.971840,7.725423
1770703690455784,0.577480,5.938323,7.620082
1770703710231149,0.515234,5.809042,7.605718
1770703730006565,0.572692,5.756371,7.706270
1770703749781930,0.745067,5.641455,7.715847
1770703769557347,0.764220,5.583996,7.854704
1770703789332711,0.725914,5.737218,7.682329
1770703809138649,0.639727,5.445138,7.854704
1770703828914013,0.821678,5.708489,7.797246
1770703848719951,0.764220,5.852135,8.228185
1770703868464795,0.496081,6.120274,8.118056
1770703888240211,0.232730,6.038875,8.343102
1770703908015576,0.773796,5.660607,7.586565
1770703927790992,1.051512,5.612725,7.356732
1770703947566357,0.812102,5.493020,7.797246
1770703967341774,0.563116,5.550478,8.434076
1770703987147659,0.711550,5.674972,8.319160
1770704006923076,0.783373,5.464291,8.486747
1770704026728961,0.639727,5.344586,8.912896
1770704046651357,0.826467,5.215305,8.917685
1770704066426722,0.903078,5.392468,8.529840
1770704086202138,1.233464,5.291916,8.295219
1770704105946982,1.367533,5.320645,7.849916
1770704125691878,1.204734,5.416409,7.658389
1770704145497763,1.233464,5.550478,7.500378
1770704165303701,1.367533,5.440350,7.505166
1770704185109586,1.635672,5.521749,7.270545
1770704204885003,1.424991,5.507385,7.490801
1770704224660367,1.640460,5.368527,7.778093
1770704244435784,1.741012,5.339798,7.983985
1770704264211149,1.712283,5.521749,7.902586
1770704283986565,1.276557,5.646243,8.074962
1770704303761930,1.597367,5.493020,7.605718
1770704323567815,1.673978,5.555267,7.390249
1770704343373753,1.645248,5.861712,7.395037
1770704363149117,1.401050,6.096333,7.591353
1770704382955055,1.630884,6.235191,6.897065
1770704402730420,1.966058,5.622302,6.921006
1770704422505836,2.066610,5.301493,7.007194
1770704442311722,1.812835,5.550478,7.213086
1770704462087138,1.831988,5.272763,7.505166
1770704481862503,1.889446,5.148270,7.830763
1770704501637920,1.745801,5.215305,8.204244
1770704521413284,1.793683,5.253611,8.491535
1770704541219222,1.855929,5.291916,8.486747
1770704560994586,1.855929,5.325434,8.367043
1770704580800524,1.755377,5.358951,8.098903
1770704600575888,1.664401,5.335010,8.060597
1770704620351305,1.597367,5.344586,8.051021
1770704640126670,1.597367,5.397256,8.055809
1770704659932607,1.496814,5.335010,7.825975
1770704679707972,1.310075,5.646243,7.720635
1770704699483388,1.209522,5.703701,7.912163
1770704719258753,1.271769,5.670184,7.902586
1770704739034170,1.310075,5.727642,7.725423
1770704758809534,1.228675,5.785100,7.524319
1770704778584951,1.128123,5.818618,7.509954
1770704798360315,1.080241,5.785100,7.730211
1770704818135732,1.147276,5.684548,8.060597
1770704837911097,1.334016,5.526537,8.089326
1770704857717034,1.377109,5.521749,7.936104
1770704877522920,1.271769,5.569632,7.893010
1770704897298284,1.319651,5.536114,7.897798
1770704917073701,1.468085,5.291916,8.122844
1770704936849065,1.611731,5.157846,8.252126
1770704956593961,1.530332,5.296704,7.983985
1770704976369378,1.357957,5.574419,7.715847
1770704996175263,1.123335,5.708489,7.730211
1770705015950628,1.439356,5.435562,7.907375
1770705035726045,1.525543,5.406833,7.854704
1770705055622399,1.444144,5.430774,7.624871
1770705075397815,1.247828,5.612725,7.423767
1770705095173180,1.257404,5.560055,7.667964
1770705114948597,1.472873,5.282340,8.103691
1770705134723961,1.401050,5.229670,8.539417
1770705154529899,1.180793,5.387680,8.481958
1770705174305263,1.123335,5.579208,7.993562
1770705194050159,1.128123,5.588784,7.797246
1770705213825524,1.367533,5.454715,7.763729
1770705233661982,1.319651,5.296704,7.988774
1770705253437347,1.305286,5.378104,7.950469
1770705273243284,1.171217,5.516961,7.806822
1770705293049170,1.214311,5.507385,7.888222
1770705312855107,1.453721,5.411621,8.127632
1770705332630472,1.424991,5.311069,8.175514
1770705352436409,1.176005,5.267975,8.328736
1770705372211774,1.022783,5.416409,8.118056
1770705392017711,1.075453,5.516961,7.936104
1770705411793076,0.970113,5.670184,7.897798
1770705431568492,0.912654,5.732430,7.778093
1770705451343857,0.893501,5.718066,7.615294
1770705471119274,0.941383,5.627090,7.663177
1770705490925159,0.869560,5.469079,8.098903
1770705510700524,0.922231,5.277552,8.376618
1770705530506461,1.070665,5.373316,8.539417
1770705550281826,1.152064,5.354163,8.481958
1770705570087763,1.185581,5.502596,8.209031
1770705589863128,1.089818,5.464291,7.873857
1770705609669065,1.171217,5.368527,7.811610
1770705629444430,1.348380,5.186575,7.960044
1770705649219847,1.405838,5.138694,7.969621
1770705668995211,1.482450,5.200940,8.046233
1770705688801149,1.463297,5.215305,7.821187
1770705708576513,1.266981,5.248822,7.711059
1770705728351930,1.319651,5.181787,7.725423
1770705748127295,1.281345,5.253611,7.960044
1770705767902711,1.343592,5.248822,8.194667
1770705787708597,1.233464,5.421197,7.988774
1770705807514534,1.137700,5.435562,7.859493
1770705827289899,1.065876,5.512173,7.869069
1770705847065315,1.089818,5.373316,8.007927
1770705866871201,1.118547,5.358951,8.118056
1770705886646617,1.099394,5.368527,8.242548
1770705906421982,1.037147,5.387680,8.343102
1770705926197399,1.166429,5.311069,8.228185
1770705945972763,1.094606,5.181787,8.204244
1770705965778649,0.917442,5.349375,8.141996
1770705985554065,0.855196,5.507385,8.309584
1770706005329430,0.989265,5.416409,8.395771
1770706025104847,1.037147,5.392468,8.290430
1770706044880211,1.051512,5.425986,7.983985
1770706064753076,1.094606,5.291916,7.787669
1770706084528440,1.243040,5.244034,7.706270
1770706104334378,1.391474,5.172211,7.888222
1770706124140263,1.444144,5.038142,8.055809
1770706143915680,1.372321,5.018989,8.051021
1770706163691045,1.243040,5.224881,7.979197
1770706183496982,1.142488,5.306281,7.974410
1770706203272347,1.310075,5.200940,8.074962
1770706223047763,1.434568,4.999836,8.074962
1770706242853649,1.310075,5.143482,7.797246
1770706262598545,1.185581,5.244034,7.897798
1770706282373909,1.022783,5.354163,7.998351
1770706302179847,0.960536,5.382892,8.189878
1770706321985732,0.936595,5.320645,8.185090
1770706341791670,0.797738,5.311069,8.314371
1770706361567034,0.845619,5.220093,8.568147
1770706381342451,1.008418,5.253611,8.673487
1770706401117815,1.065876,5.200940,8.673487
1770706420923753,0.974901,5.119541,8.525052
1770706440699117,1.032359,5.109964,8.333525
1770706460474534,1.075453,5.181787,8.381407
1770706480219378,1.113759,5.119541,8.089326
1770706499994795,1.238252,5.148270,8.084538
1770706519770159,1.329227,5.109964,8.199455
1770706539545576,1.281345,4.947165,8.376618
1770706559320940,1.472873,4.793943,8.371830
1770706579096357,1.396262,4.918437,8.218607
1770706598871722,1.444144,5.038142,7.854704
1770706618647138,1.559061,5.033354,7.739788
1770706638453024,1.602155,5.057294,7.658389
1770706658228440,1.420203,5.047718,7.701482
1770706678003805,1.420203,5.148270,7.802034
1770706697779222,1.458509,5.071659,7.816399
1770706717554586,1.453721,5.253611,7.830763
1770706737360472,1.305286,5.023777,8.218607
1770706757105367,1.338804,4.985472,8.496324
1770706776880784,1.262193,5.038142,8.515476
1770706796686670,1.305286,4.956742,8.548993
1770706816462034,1.204734,5.004624,8.611240
1770706836206930,1.147276,5.033354,8.568147
1770706855982347,1.171217,5.066871,8.438865
1770706875788232,1.056300,5.200940,8.539417
1770706895563597,1.199946,5.181787,8.458017
1770706915339013,1.362745,5.066871,8.204244
1770706935114378,1.290922,5.315857,7.653600
1770706954889795,1.310075,5.253611,7.557836
1770706974665159,1.348380,5.181787,7.859493
1770706994471097,1.410627,5.143482,8.242548
1770707014246461,1.544696,5.009413,8.520265
1770707034052399,1.630884,4.980683,8.443653
1770707053827763,1.539908,5.042930,8.094115
1770707073713388,1.568637,4.980683,8.060597
1770707093458232,1.434568,5.066871,8.400559
1770707113233649,1.626096,4.913649,8.505899
1770707133039534,1.688342,5.038142,8.132421
1770707152814951,1.420203,5.181787,7.940892
1770707172590315,1.156852,5.406833,8.132421
1770707192365732,1.271769,5.239246,8.132421
1770707212141097,0.946172,5.713278,7.414190
1770707231885992,0.955748,5.550478,7.270545
1770707251661357,1.209522,5.315857,7.500378
1770707271436774,1.472873,4.511440,8.156362
1770707291242659,1.415415,4.621569,8.941626
1770707311018076,1.367533,4.511440,9.070908
1770707330823961,1.468085,4.913649,8.525052
1770707350599378,1.506391,4.789155,8.611240
1770707370405263,1.774530,5.042930,8.122844
1770707390180680,1.697919,5.239246,8.357466
1770707409956045,1.721860,5.042930,8.501111
1770707429731461,1.764953,5.162634,8.261702
1770707449506826,1.496814,5.057294,7.830763
1770707469282242,1.650037,5.181787,7.203509
1770707489057607,1.602155,4.755638,7.883434
1770707508863545,1.798471,4.755638,7.883434
1770707528638909,1.812835,4.961531,7.893010
1770707548444847,1.784106,5.277552,7.964833
1770707568220211,1.989999,5.248822,7.979197
1770707588026149,2.104916,5.277552,8.276067
1770707607770992,2.368266,5.378104,8.309584
1770707627546409,2.511912,5.023777,8.007927
1770707647352295,2.248561,4.837037,7.605718
1770707667158180,1.903811,4.904072,7.438131
1770707686964117,1.573426,4.746062,8.046233
1770707706770003,1.606943,4.674239,8.276067
1770707726545420,1.549484,4.631145,8.386194
1770707746351305,1.319651,4.846613,8.419712
1770707766126722,1.243040,4.966319,8.458017
1770707785902086,1.147276,5.224881,8.295219
1770707805708024,1.085029,5.435562,8.122844
1770707825452867,1.257404,5.416409,8.012715
1770707845228284,1.305286,5.430774,7.835552
1770707865003649,1.262193,5.440350,7.912163
1770707884779065,1.252616,5.382892,8.194667
1770707904615472,1.300498,5.277552,8.405348
1770707924390888,1.434568,5.210516,8.501111
1770707944196774,1.295710,5.325434,8.189878
1770707963972190,1.262193,5.200940,8.151573
1770707983747555,1.334016,5.153058,8.328736
1770708003522972,1.386686,5.109964,8.376618
1770708023298336,1.391474,5.133905,8.218607
1770708043104274,1.482450,5.047718,7.950469
1770708062879638,1.501602,5.119541,7.835552
1770708082752659,1.424991,5.210516,7.912163
1770708102558545,1.286134,5.406833,7.983985
1770708122333909,1.214311,5.473867,8.007927
1770708142109326,1.343592,5.320645,7.979197
1770708161884690,1.362745,5.282340,8.070174
1770708181690628,1.204734,5.301493,7.969621
1770708201465992,1.252616,5.248822,8.084538
1770708221241409,1.290922,5.153058,8.213820
1770708241047295,1.477662,5.109964,8.175514
1770708260822711,1.353168,5.224881,8.161149
1770708280628597,1.439356,5.224881,8.094115
1770708300404013,1.319651,5.138694,8.051021
1770708320179378,1.286134,5.277552,8.113267
1770708339985315,1.353168,5.186575,8.194667
1770708359760680,1.348380,5.239246,8.199455
1770708379536097,1.405838,5.181787,8.141996
1770708399311461,1.405838,5.167423,8.070174